When you browse on this site, cookies collect data to enhance your experience and personalize the content and advertising you see.
Visit our Privacy Policy to learn more. By continuing to use the site, you agree to this use of cookies and data.
  • In Österreich
  • Länderverzeichnis
  • Für 7 Tage
  • Wassertemperatur
  • Satellitenkarten
  • Wetterkarte
  • News
  • Widgets
  • user-avatar
    Anmelden

    Stündliche Wetter Innsbruck

    Heute, 18 Januar, Freitag

    Zeit Temperatur Niederschläge Wind Luftdruck Luftfeuchtigkeit
    00:00 -9°C° 0.8 mm 2 m/S 587 mmHg 95%
    01:00 -10°C° 0.8 mm 2 m/S 587 mmHg 95%
    02:00 -12°C° 0.2 mm 2 m/S 587 mmHg 94%
    03:00 -12°C° 0.2 mm 2 m/S 587 mmHg 92%
    04:00 -13°C° 0.2 mm 2 m/S 587 mmHg 91%
    05:00 -13°C° 0.1 mm 2 m/S 587 mmHg 92%
    06:00 -14°C° 0.1 mm 2 m/S 587 mmHg 93%
    07:00 -15°C° 0.1 mm 2 m/S 587 mmHg 94%
    08:00 -14°C° 0 mm 2 m/S 588 mmHg 93%
    09:00 -13°C° 0 mm 2 m/S 588 mmHg 91%
    10:00 -12°C° 0 mm 2 m/S 589 mmHg 90%
    11:00 -12°C° 0 mm 2 m/S 589 mmHg 87%
    12:00 -12°C° 0 mm 2 m/S 590 mmHg 85%
    13:00 -10°C° 0 mm 2 m/S 590 mmHg 83%
    14:00 -10°C° 0 mm 1 m/S 589 mmHg 85%
    15:00 -11°C° 0 mm 1 m/S 589 mmHg 87%
    16:00 -11°C° 0 mm 1 m/S 589 mmHg 89%
    17:00 -13°C° 0 mm 1 m/S 588 mmHg 89%
    18:00 -15°C° 0 mm 1 m/S 587 mmHg 88%
    19:00 -17°C° 0 mm 1 m/S 587 mmHg 87%
    20:00 -18°C° 0 mm 2 m/S 587 mmHg 82%
    21:00 -18°C° 0 mm 2 m/S 588 mmHg 78%
    22:00 -17°C° 0 mm 2 m/S 588 mmHg 73%
    23:00 -17°C° 0 mm 2 m/S 588 mmHg 73%

    Morgen, 19 Januar, Samstag

    Zeit Temperatur Niederschläge Wind Luftdruck Luftfeuchtigkeit
    00:00 -17°C° 0 mm 2 m/S 588 mmHg 72%
    01:00 -18°C° 0 mm 3 m/S 588 mmHg 71%
    02:00 -17°C° 0 mm 3 m/S 588 mmHg 72%
    03:00 -17°C° 0 mm 3 m/S 588 mmHg 72%
    04:00 -16°C° 0 mm 3 m/S 588 mmHg 73%
    05:00 -15°C° 0 mm 2 m/S 588 mmHg 74%
    06:00 -15°C° 0 mm 2 m/S 588 mmHg 74%
    07:00 -15°C° 0 mm 2 m/S 588 mmHg 75%
    08:00 -14°C° 0 mm 2 m/S 588 mmHg 77%
    09:00 -12°C° 0 mm 2 m/S 589 mmHg 79%
    10:00 -10°C° 0 mm 2 m/S 589 mmHg 81%
    11:00 -9°C° 0 mm 2 m/S 589 mmHg 81%
    12:00 -7°C° 0 mm 1 m/S 589 mmHg 81%
    13:00 -6°C° 0 mm 1 m/S 590 mmHg 81%
    14:00 -6°C° 0 mm 1 m/S 589 mmHg 82%
    15:00 -7°C° 0 mm 1 m/S 588 mmHg 83%
    16:00 -7°C° 0 mm 1 m/S 588 mmHg 84%
    17:00 -9°C° 0 mm 1 m/S 587 mmHg 83%
    18:00 -13°C° 0 mm 2 m/S 587 mmHg 82%
    19:00 -14°C° 0 mm 2 m/S 586 mmHg 81%
    20:00 -15°C° 0 mm 2 m/S 586 mmHg 80%
    21:00 -15°C° 0 mm 2 m/S 586 mmHg 79%
    22:00 -15°C° 0 mm 2 m/S 586 mmHg 78%
    23:00 -16°C° 0 mm 2 m/S 586 mmHg 78%

    übermorgen, 20 Januar, Sonntag

    Zeit Temperatur Niederschläge Wind Luftdruck Luftfeuchtigkeit
    00:00 -16°C° 0 mm 2 m/S 586 mmHg 78%
    01:00 -16°C° 0 mm 2 m/S 585 mmHg 78%
    02:00 -15°C° 0 mm 2 m/S 586 mmHg 78%
    03:00 -15°C° 0 mm 2 m/S 586 mmHg 78%
    04:00 -15°C° 0 mm 2 m/S 586 mmHg 77%
    05:00 -15°C° 0 mm 2 m/S 586 mmHg 77%
    06:00 -13°C° 0 mm 1 m/S 586 mmHg 77%
    07:00 -13°C° 0 mm 1 m/S 586 mmHg 77%
    08:00 -11°C° 0 mm 1 m/S 587 mmHg 78%
    09:00 -10°C° 0 mm 1 m/S 588 mmHg 80%
    10:00 -8°C° 0 mm 1 m/S 588 mmHg 81%
    11:00 -7°C° 0 mm 1 m/S 589 mmHg 81%
    12:00 -6°C° 0 mm 1 m/S 589 mmHg 80%
    13:00 -4°C° 0 mm 1 m/S 589 mmHg 80%
    14:00 -6°C° 0.1 mm 1 m/S 589 mmHg 84%
    15:00 -6°C° 0.1 mm 1 m/S 589 mmHg 87%
    16:00 -7°C° 0.1 mm 1 m/S 589 mmHg 91%
    17:00 -8°C° 0.1 mm 1 m/S 588 mmHg 91%
    18:00 -10°C° 0.1 mm 1 m/S 588 mmHg 92%
    19:00 -11°C° 0.1 mm 1 m/S 588 mmHg 92%
    20:00 -11°C° 0 mm 1 m/S 588 mmHg 91%
    21:00 -12°C° 0 mm 1 m/S 588 mmHg 90%
    22:00 -12°C° 0 mm 1 m/S 589 mmHg 88%
    23:00 -12°C° 0 mm 1 m/S 589 mmHg 87%

    21 Januar, Montag

    Zeit Temperatur Niederschläge Wind Luftdruck Luftfeuchtigkeit
    00:00 -13°C° 0 mm 1 m/S 589 mmHg 86%
    01:00 -13°C° 0 mm 1 m/S 589 mmHg 85%
    02:00 -13°C° 0 mm 1 m/S 588 mmHg 85%
    03:00 -14°C° 0 mm 1 m/S 588 mmHg 85%
    04:00 -14°C° 0 mm 1 m/S 588 mmHg 85%
    05:00 -14°C° 0 mm 1 m/S 588 mmHg 85%
    06:00 -14°C° 0 mm 1 m/S 588 mmHg 85%
    07:00 -15°C° 0 mm 1 m/S 588 mmHg 85%
    08:00 -13°C° 0 mm 1 m/S 589 mmHg 85%
    09:00 -11°C° 0 mm 1 m/S 590 mmHg 85%
    10:00 -10°C° 0 mm 1 m/S 591 mmHg 85%
    11:00 -9°C° 0 mm 1 m/S 592 mmHg 84%
    12:00 -8°C° 0 mm 1 m/S 592 mmHg 83%
    13:00 -7°C° 0 mm 1 m/S 592 mmHg 82%
    14:00 -7°C° 0 mm 1 m/S 592 mmHg 85%
    15:00 -7°C° 0 mm 1 m/S 591 mmHg 88%
    16:00 -8°C° 0 mm 1 m/S 591 mmHg 91%
    17:00 -9°C° 0 mm 1 m/S 590 mmHg 92%
    18:00 -11°C° 0 mm 1 m/S 590 mmHg 93%
    19:00 -13°C° 0 mm 0 m/S 589 mmHg 94%
    20:00 -13°C° 0 mm 1 m/S 589 mmHg 92%
    21:00 -14°C° 0 mm 1 m/S 589 mmHg 90%
    22:00 -14°C° 0 mm 1 m/S 588 mmHg 88%
    23:00 -14°C° 0 mm 1 m/S 588 mmHg 86%

    22 Januar, Dienstag

    Zeit Temperatur Niederschläge Wind Luftdruck Luftfeuchtigkeit
    00:00 -14°C° 0 mm 1 m/S 587 mmHg 84%
    01:00 -15°C° 0 mm 1 m/S 587 mmHg 82%
    02:00 -15°C° 0 mm 1 m/S 586 mmHg 80%
    03:00 -15°C° 0 mm 1 m/S 586 mmHg 78%
    04:00 -15°C° 0 mm 1 m/S 585 mmHg 77%
    05:00 -15°C° 0 mm 1 m/S 585 mmHg 75%
    06:00 -15°C° 0 mm 1 m/S 584 mmHg 72%
    07:00 -15°C° 0 mm 1 m/S 584 mmHg 70%
    08:00 -13°C° 0 mm 1 m/S 584 mmHg 71%
    09:00 -11°C° 0 mm 1 m/S 584 mmHg 72%
    10:00 -10°C° 0 mm 1 m/S 584 mmHg 72%
    11:00 -8°C° 0 mm 1 m/S 584 mmHg 70%
    12:00 -7°C° 0 mm 1 m/S 584 mmHg 69%
    13:00 -6°C° 0 mm 1 m/S 583 mmHg 67%
    14:00 -6°C° 0 mm 1 m/S 582 mmHg 73%
    15:00 -7°C° 0 mm 1 m/S 581 mmHg 80%
    16:00 -7°C° 0 mm 1 m/S 580 mmHg 86%
    17:00 -8°C° 0.1 mm 1 m/S 580 mmHg 86%
    18:00 -9°C° 0.1 mm 1 m/S 579 mmHg 85%
    19:00 -11°C° 0.1 mm 1 m/S 578 mmHg 85%
    20:00 -11°C° 0.1 mm 1 m/S 578 mmHg 86%
    21:00 -11°C° 0.1 mm 1 m/S 578 mmHg 87%
    22:00 -11°C° 0.1 mm 1 m/S 578 mmHg 88%
    23:00 -11°C° 0.2 mm 1 m/S 577 mmHg 90%

    23 Januar, Mittwoch

    Zeit Temperatur Niederschläge Wind Luftdruck Luftfeuchtigkeit
    00:00 -11°C° 0.2 mm 1 m/S 577 mmHg 92%
    01:00 -12°C° 0.2 mm 1 m/S 577 mmHg 94%
    02:00 -12°C° 0.3 mm 1 m/S 576 mmHg 94%
    03:00 -12°C° 0.3 mm 1 m/S 576 mmHg 95%
    04:00 -13°C° 0.3 mm 1 m/S 575 mmHg 95%
    05:00 -13°C° 0.3 mm 1 m/S 575 mmHg 95%
    06:00 -13°C° 0.3 mm 1 m/S 574 mmHg 94%
    07:00 -14°C° 0.3 mm 1 m/S 574 mmHg 94%
    08:00 -13°C° 0.3 mm 1 m/S 574 mmHg 93%
    09:00 -12°C° 0.3 mm 1 m/S 574 mmHg 92%
    10:00 -12°C° 0.3 mm 1 m/S 574 mmHg 92%
    11:00 -13°C° 0.2 mm 2 m/S 574 mmHg 91%
    12:00 -12°C° 0.2 mm 2 m/S 574 mmHg 91%
    13:00 -10°C° 0.2 mm 2 m/S 573 mmHg 90%
    14:00 -12°C° 0.3 mm 2 m/S 573 mmHg 91%
    15:00 -13°C° 0.3 mm 3 m/S 572 mmHg 92%
    16:00 -13°C° 0.3 mm 3 m/S 572 mmHg 93%
    17:00 -14°C° 0.6 mm 3 m/S 572 mmHg 94%
    18:00 -14°C° 0.6 mm 3 m/S 571 mmHg 95%
    19:00 -15°C° 0.6 mm 3 m/S 571 mmHg 96%
    20:00 -14°C° 0.7 mm 2 m/S 571 mmHg 96%
    21:00 -12°C° 0.7 mm 1 m/S 571 mmHg 95%
    22:00 -13°C° 0.7 mm 1 m/S 571 mmHg 95%
    23:00 -13°C° 0.1 mm 1 m/S 571 mmHg 94%
    Mehr zeigen